User: anonymous   Login
Location: Unspecified
(0.0000°N, 0.0000°E)
Time: 15:28:32
(UTC+01:00)
Language:

Cosmos 1782 Rocket - Orbit

View from above orbital plane
View from above orbital plane
View from above satellite
View from above satellite

Ground track
Ground track

The orbit data is extracted from the following two-line orbital elements,

1 16987U 86074B   16339.53666616  .00000109  00000-0  10441-4 0  9991
2 16987  82.5149 132.7112 0018286 177.2216 249.0874 14.82935763629627
Epoch (UTC): 04 December 2016 12:52:47
Eccentricity: 0.0018286
inclination: 82.5149°
perigee height: 607 km
apogee height: 633 km
right ascension of ascending node: 132.7112°
argument of perigee: 177.2216°
revolutions per day: 14.82935763
mean anomaly at epoch: 249.0874°
orbit number at epoch: 62962

The dashed part of the orbit path shows where the satellite is in the earth's shadow,  

DLR